Location: DARK SKY Beskydy - Park tmavé oblohy, www.darkskybeskydy.cz
(49.4926°N, 18.5016°E)
Time: 22:53:28
(UTC+02:00)

Explorer 7 - All Passes

Search period start: 24 July 2024 00:00
Search period end: 03 August 2024 00:00
Orbit: 465 x 618 km, 50.3° (Epoch: 24 July)

Date Brightness Start Highest point End Pass type
(mag) Time Alt. Az. Time Alt. Az. Time Alt. Az.
24 Jul - 01:25:23 10° WSW 01:29:57 89° NNW 01:34:31 10° E visible
24 Jul - 03:05:13 10° W 03:09:49 86° N 03:14:18 10° E visible
24 Jul - 04:45:04 10° W 04:49:23 45° SSW 04:53:33 10° SE daylight
24 Jul - 06:26:30 10° WSW 06:28:12 12° SW 06:29:53 10° SSW daylight
24 Jul - 22:00:48 10° SSE 22:03:07 14° SE 22:05:28 10° ESE visible
24 Jul - 23:37:41 10° SW 23:42:03 48° SSE 23:46:27 10° ENE visible
25 Jul - 01:17:05 10° W 01:21:40 84° N 01:26:13 10° E visible
25 Jul - 02:56:56 10° W 03:01:30 89° SSW 03:06:00 10° ESE visible
25 Jul - 04:36:48 10° W 04:41:00 38° SSW 04:45:04 10° SE daylight
25 Jul - 21:51:42 10° S 21:54:38 17° SE 21:57:36 10° E visible
25 Jul - 23:29:14 10° SW 23:33:40 56° SSE 23:38:09 10° ENE visible
26 Jul - 01:08:46 10° W 01:13:20 82° N 01:17:55 10° E visible
26 Jul - 02:48:36 10° WNW 02:53:11 83° SSW 02:57:40 10° ESE visible
26 Jul - 04:28:32 10° W 04:32:34 32° SW 04:36:29 10° SSE visible
26 Jul - 21:42:48 10° S 21:46:08 21° SE 21:49:31 10° E visible
26 Jul - 23:20:48 10° WSW 23:25:16 64° SSE 23:29:48 10° ENE visible
27 Jul - 01:00:26 10° W 01:05:00 80° N 01:09:35 10° E visible
27 Jul - 02:40:15 10° WNW 02:44:49 76° SSW 02:49:18 10° ESE visible
27 Jul - 04:20:17 10° W 04:24:07 27° SW 04:27:50 10° SSE visible
27 Jul - 21:33:59 10° SSW 21:37:37 25° SE 21:41:20 10° E visible
27 Jul - 23:12:23 10° WSW 23:16:53 72° SSE 23:21:26 10° ENE visible
28 Jul - 00:52:05 10° W 00:56:39 80° N 01:01:13 10° E visible
28 Jul - 02:31:52 10° WNW 02:36:25 68° SSW 02:40:53 10° ESE visible
28 Jul - 04:12:03 10° W 04:15:37 23° SW 04:19:05 10° SSE visible
28 Jul - 21:25:16 10° SSW 21:29:07 30° SE 21:33:04 10° E visible
28 Jul - 23:03:57 10° WSW 23:08:28 80° SSE 23:13:03 10° ENE visible
29 Jul - 00:43:42 10° W 00:48:17 81° N 00:52:51 10° E visible
29 Jul - 02:23:29 10° WNW 02:27:59 60° SSW 02:32:26 10° SE visible
29 Jul - 04:03:53 10° W 04:07:04 19° SW 04:10:12 10° S visible
29 Jul - 21:16:35 10° SSW 21:20:36 35° SSE 21:24:44 10° E visible
29 Jul - 22:55:32 10° WSW 23:00:02 86° S 23:04:38 10° ENE visible
30 Jul - 00:35:18 10° W 00:39:52 83° N 00:44:27 10° E visible
30 Jul - 02:15:05 10° WNW 02:19:32 52° SSW 02:23:54 10° SE visible
30 Jul - 03:55:49 10° W 03:58:29 16° SW 04:01:07 10° S visible
30 Jul - 19:32:20 10° SE 19:33:20 11° SE 19:34:20 10° ESE daylight
30 Jul - 21:07:56 10° SW 21:12:05 41° SSE 21:16:21 10° E visible
30 Jul - 22:47:06 10° W 22:51:36 88° N 22:56:12 10° E visible
31 Jul - 00:26:53 10° W 00:31:27 86° N 00:36:01 10° E visible
31 Jul - 02:06:40 10° W 02:11:02 45° SSW 02:15:19 10° SE visible
31 Jul - 03:47:58 10° WSW 03:49:52 12° SW 03:51:45 10° SSW visible
31 Jul - 19:22:33 10° SSE 19:24:41 13° SE 19:26:52 10° ESE daylight
31 Jul - 20:59:20 10° SW 21:03:33 48° SSE 21:07:56 10° ENE visible
31 Jul - 22:38:39 10° W 22:43:09 84° N 22:47:44 10° E visible
01 Aug - 00:18:25 10° W 00:22:59 89° SSW 00:27:34 10° ESE visible
01 Aug - 01:58:14 10° W 02:02:29 38° SSW 02:06:40 10° SE visible
01 Aug - 19:13:18 10° S 19:16:03 17° SE 19:18:51 10° E daylight
01 Aug - 20:50:44 10° SW 20:55:01 56° SSE 20:59:28 10° ENE daylight
01 Aug - 22:30:12 10° W 22:34:41 81° N 22:39:16 10° E visible
02 Aug - 00:09:58 10° WNW 00:14:30 83° SSW 00:19:04 10° ESE visible
02 Aug - 01:49:50 10° W 01:53:54 33° SW 01:57:56 10° SSE visible
02 Aug - 19:04:14 10° S 19:07:23 20° SE 19:10:39 10° E daylight
02 Aug - 20:42:10 10° WSW 20:46:29 64° SSE 20:50:57 10° ENE daylight
02 Aug - 22:21:43 10° W 22:26:11 80° N 22:30:46 10° E visible
